Regional Weather Roundup
Issued by NWS

Home | Current Version | Previous Version | Graphics & Text | Print | Product List | Glossary On
Versions: 1 2 3 4 5 6 7 8 9 10 11 12 13 14 15 16 17 18 19 20 21 22 23 24 25 26 27 28 29 30 31 32 33 34 35 36 37 38 39 40 41 42 43 44 45 46 47 48 49 50
000
ASUS45 KBOI 300710
RWRID
WEATHER ROUNDUP FOR IDAHO
NATIONAL WEATHER SERVICE BOISE ID
100 AM MDT MON MAR 30 2015

NOTE: "FAIR" INDICATES FEW OR NO CLOUDS BELOW 12000 FEET
WITH NO SIGNIFICANT WEATHER AND/OR OBSTRUCTIONS TO VISIBILITY

IDZ012-014-300800-
SOUTHWEST IDAHO


CITY           SKY/WX    TMP DP  RH WIND       PRES   REMARKS
BOISE          PTCLDY    48  31  51 SE8       30.16F
CALDWELL       PTCLDY    43  27  52 CALM      30.17S
$$

IDZ016-017-300800-
SOUTHCENTRAL IDAHO


CITY           SKY/WX    TMP DP  RH WIND       PRES   REMARKS
BURLEY         CLEAR     40  23  50 SW5       30.19S
JEROME         CLEAR     47  20  34 S6        30.20S
TWIN FALLS     CLEAR     46  20  35 S13       30.20S
$$

IDZ019>023-300800-
SOUTHEAST IDAHO


CITY           SKY/WX    TMP DP  RH WIND       PRES   REMARKS
IDAHO FALLS    CLEAR     41  19  41 SW7       30.20S
POCATELLO      CLEAR     43  16  33 CALM      30.20S
REXBURG        CLEAR     36  20  52 CALM      30.19S
$$

IDZ006-010-011-018-031-032-300800-
CENTRAL IDAHO MOUNTAINS


CITY           SKY/WX    TMP DP  RH WIND       PRES   REMARKS
MCCALL         PTCLDY    35  30  82 CALM      30.21S
HAILEY         CLEAR     41  28  60 NW10      30.23S
STANLEY          N/A     31  23  72 S5        30.29R WCI  26
SALMON         PTCLDY    39  28  65 CALM      30.19S
CHALLIS        PTCLDY    42  24  49 CALM      30.22R
$$

IDZ002-004-006-007-026-300800-
NORTHERN IDAHO


CITY           SKY/WX    TMP DP  RH WIND       PRES   REMARKS
LEWISTON       CLEAR     54  39  57 SW3       30.14S
LOWELL           N/A     43  40  89 CALM      30.21S
COEUR D`ALENE  CLEAR     39  34  81 CALM      30.15S
MULLAN PASS    CLEAR     37  27  67 VRB7      30.16F WCI  32
$$


USA.gov is the U.S. government's official web portal to all federal, state and local government web resources and services.